Kuchera_Ratio
0.0 0.0 0.0 0.0 0.0 0.0 0.0 0.0 0.0 0.0 0.0 0.0 0.0 0.0 0.0 0.0 0.0 0.0 0.0 0.0 0.0 0.0 0.0 0.0 0.0 0.0 0.0
0.2 0.0 0.0 0.0 0.0 0.0 0.0 0.0 0.0 0.0 0.0 0.0 0.0 0.0 0.0 0.0 0.0 0.0 0.0 0.0 0.0 0.0 0.0 0.0 0.0 0.0 0.0
4.1 0.0 0.0 0.0 0.0 0.0 0.0 0.0 0.0 0.0 0.0 0.0 0.0 0.0 0.0 0.0 0.0 0.0 0.0 0.0 0.0 0.0 0.0 0.0 0.0 0.0 0.0
3.7 3.2 1.0 0.0 0.0 1.2 0.7 0.0 0.0 0.0 0.0 0.0 0.0 0.0 0.0 0.0 0.0 0.0 0.0 0.0 0.0 0.0 0.0 0.0 0.0 0.0 0.0
6.4 5.5 5.4 4.7 4.7 1.7 2.8 1.0 0.0 0.0 0.0 0.0 0.0 0.0 0.0 0.0 0.0 0.0 0.0 0.0 0.0 0.0 0.0 0.0 0.0 0.0 0.0
7.7 7.8 6.6 4.8 3.2 4.0 4.3 5.6 7.5 0.0 0.4 0.9 0.0 0.0 0.0 0.0 0.0 0.0 0.0 0.0 0.0 0.0 0.0 0.0 0.0 0.0 0.0
9.0 8.4 8.4 5.4 4.4 5.9 5.6 5.3 6.9 2.2 2.6 6.0 0.0 1.3 0.0 0.0 0.0 0.0 0.0 0.0 0.0 0.0 0.0 0.0 0.0 0.0 0.0
3.2 4.0 2.6 2.1 2.6 3.7 5.4 5.8 4.5 3.2 1.2 9.4 2.0 2.8 0.0 0.0 0.0 0.0 0.0 0.0 0.0 0.0 0.0 0.0 0.0 0.0 0.0
0.0 0.0 0.0 0.0 0.0 2.8 8.8 9.7 11.2 7.6 1.9 4.3 3.7 3.7 1.2 0.0 0.0 0.0 0.0 0.0 0.0 0.0 0.0 0.0 0.0 0.0 0.0
2.0 0.4 0.0 0.0 0.0 1.6 5.4 10.1 9.7 10.6 3.1 5.3 5.7 4.0 8.6 0.0 0.0 0.0 0.0 0.0 0.0 0.0 0.0 0.0 0.0 0.0 0.0
4.3 3.7 3.3 2.2 2.1 1.8 2.0 5.8 9.4 10.2 2.5 3.1 7.6 7.1 6.5 6.3 2.1 0.0 0.0 0.0 0.0 0.0 0.0 0.0 0.0 0.0 0.0
7.5 7.5 6.6 5.7 3.9 2.0 1.6 2.1 2.3 4.9 2.3 2.3 8.5 9.6 8.9 9.7 10.1 4.1 0.9 0.5 0.0 0.0 0.0 0.0 0.0 0.0 0.0
9.1 7.9 5.7 4.8 2.0 3.1 2.2 2.4 2.9 3.3 1.4 3.3 7.1 7.9 8.9 10.9 10.9 8.9 7.1 4.7 1.1 2.0 0.7 0.8 0.7 0.0 0.0
8.7 7.5 6.3 6.7 6.9 6.0 8.1 8.0 10.1 10.1 4.4 3.2 5.2 7.1 10.0 9.4 10.0 10.9 8.0 10.2 5.4 3.9 2.4 1.7 1.0 0.0 0.0
9.6 9.5 9.0 8.7 8.6 7.3 9.6 10.7 10.6 10.6 9.9 7.0 5.1 4.7 5.7 7.5 11.4 10.0 9.8 8.9 7.7 6.2 5.6 6.9 4.2 1.4 0.0
9.9 10.7 10.9 10.3 10.1 9.5 9.8 11.4 12.4 12.1 11.4 8.5 8.4 10.3 11.6 10.2 5.2 10.7 9.2 9.9 8.4 6.7 6.7 8.8 9.2 3.5 0.0
10.3 10.7 10.8 10.7 10.7 11.2 10.5 10.9 11.0 11.1 11.9 10.5 12.1 12.7 14.3 14.5 9.8 2.4 11.6 9.5 8.9 7.7 4.9 6.2 8.3 6.5 1.2